This is the latest recevied weather packets stored in our database for station/object SP8EBC-11. If no packets are shown the sender has not sent any weather packets the latest 10 day(s).
| Time | Temp. | Humidity | Pressure | Rain* | Wind** | Luminosity | Snow |
|---|---|---|---|---|---|---|---|
| 1777381277 | 5.56° C | 63% | 1007.1 hPa | - | - | - | - |
| 1777381156 | 5.56° C | 63% | 1007.2 hPa | - | - | - | - |
| 1777381036 | 5.56° C | 63% | 1007.3 hPa | - | - | - | - |
| 1777380918 | 5.56° C | 64% | 1007.4 hPa | - | - | - | - |
| 1777380796 | 5.56° C | 64% | 1007.5 hPa | - | - | - | - |
| 1777380678 | 5.56° C | 64% | 1007.7 hPa | - | - | - | - |
| 1777380557 | 6.11° C | 64% | 1007.7 hPa | - | - | - | - |
| 1777380438 | 6.11° C | 64% | 1007.6 hPa | - | - | - | - |
| 1777380316 | 6.11° C | 64% | 1007.3 hPa | - | - | - | - |
| 1777380196 | 6.67° C | 65% | 1007.2 hPa | - | - | - | - |
| 1777380076 | 6.67° C | 65% | 1007.1 hPa | - | - | - | - |
| 1777379956 | 6.67° C | 65% | 1007 hPa | - | - | - | - |
| 1777379836 | 6.67° C | 65% | 1007 hPa | - | - | - | - |
| 1777379716 | 7.22° C | 66% | 1006.8 hPa | - | - | - | - |
| 1777379596 | 6.67° C | 66% | 1006.7 hPa | - | - | - | - |
| 1777379475 | 6.67° C | 67% | 1006.6 hPa | - | - | - | - |
| 1777379356 | 6.67° C | 67% | 1006.7 hPa | - | - | - | - |
| 1777379235 | 6.11° C | 67% | 1006.7 hPa | - | - | - | - |
| 1777379115 | 6.11° C | 68% | 1006.8 hPa | - | - | - | - |
| 1777378995 | 6.11° C | 68% | 1006.9 hPa | - | - | - | - |
| 1777378875 | 5.56° C | 68% | 1007 hPa | - | - | - | - |
| 1777378755 | 5.56° C | 69% | 1007 hPa | - | - | - | - |
| 1777378636 | 5° C | 69% | 1007 hPa | - | - | - | - |
| 1777378515 | 5° C | 69% | 1007 hPa | - | - | - | - |
| 1777378395 | 4.44° C | 70% | 1007.1 hPa | - | - | - | - |
* Rain since midnight (hover to see other rain measurements)
** Current wind speed in m/s (hover to see current wind gust speed)